Location: Treviso
(45.6669°N, 12.2430°E)
Time: 15:21:32
(UTC+01:00)

ISS - Visible Passes

Search period start: 22 February 2019 00:00
Search period end: 04 March 2019 00:00
Orbit: 403 x 411 km, 51.6° (Epoch: 22 February)

Date Brightness Start Highest point End Pass type
(mag) Time Alt. Az. Time Alt. Az. Time Alt. Az.
24 Feb -1.4 05:42:21 10° S 05:44:52 21° SE 05:47:25 10° E visible
25 Feb -0.9 04:52:15 10° SSE 04:53:37 12° SE 04:55:01 10° ESE visible
25 Feb -3.7 06:26:24 10° SW 06:29:40 78° SSE 06:32:57 10° ENE visible
26 Feb -2.9 05:35:59 17° SSW 05:38:15 45° SE 05:41:24 10° ENE visible
27 Feb -2.0 04:46:53 26° SE 04:46:53 26° SE 04:49:40 10° E visible
27 Feb -3.6 06:20:01 10° WSW 06:23:14 55° NNW 06:26:28 10° ENE visible
28 Feb -3.9 05:30:22 33° WSW 05:31:41 84° NNW 05:34:58 10° ENE visible
01 Mar -2.6 04:41:01 42° E 04:41:01 42° E 04:43:26 10° ENE visible
01 Mar -2.9 06:13:48 10° W 06:16:52 35° NNW 06:19:55 10° NE visible
02 Mar -0.3 03:51:35 11° ENE 03:51:35 11° ENE 03:51:45 10° ENE visible
02 Mar -3.3 05:24:17 35° WNW 05:25:13 47° NNW 05:28:24 10° NE visible
03 Mar -2.3 04:34:47 36° NE 04:34:47 36° NE 04:36:53 10° ENE visible
03 Mar -2.4 06:07:36 10° WNW 06:10:31 28° N 06:13:25 10° ENE visible
